EHI
0 0 1 2 2 1 0 0 0 0 0 0 0 0 0 0 0 0 6 20 30 32 33 32 26 18 11 7 6 6 4 3 3 3 2 1 0 0 0 0 0 0 0
0 0 0 1 1 0 0 0 0 0 0 0 0 0 0 0 0 0 5 16 25 27 28 30 28 22 14 8 5 4 3 3 3 3 2 1 0 0 0 0 0 0 0
0 0 0 0 0 0 0 0 0 0 0 0 0 0 0 0 0 0 3 9 14 16 19 23 26 24 16 8 3 2 2 2 2 2 2 1 0 0 0 0 0 0 0
1 1 1 1 1 0 0 0 0 0 0 0 0 0 0 0 0 0 2 4 6 7 10 14 18 20 14 6 2 1 1 1 1 1 1 0 0 0 0 1 1 1 0
3 2 2 2 2 1 0 0 0 0 0 0 0 0 0 0 0 1 1 1 2 3 4 6 10 11 9 4 1 1 1 1 1 2 1 1 1 1 0 1 1 1 0
6 4 3 2 2 1 0 0 0 0 0 0 0 0 0 0 0 0 0 0 1 1 1 3 4 5 4 2 1 1 1 1 2 2 2 3 3 2 1 0 0 0 0
6 6 5 3 1 1 0 0 0 0 0 0 0 0 0 0 0 0 0 0 0 0 0 1 1 1 1 0 0 1 1 1 1 1 1 3 3 2 1 0 0 0 0
7 8 7 4 2 2 1 0 0 0 0 0 0 0 0 0 0 0 0 0 0 0 0 0 0 0 0 0 0 0 0 0 0 0 1 1 1 1 0 0 0 0 0
7 7 6 4 3 3 2 1 1 0 0 0 0 0 0 0 0 0 0 0 0 0 0 0 0 0 0 0 0 0 0 0 0 0 0 0 0 0 0 0 0 0 0
5 5 4 3 2 2 2 2 1 0 0 0 0 0 0 0 0 0 0 0 0 0 0 0 0 0 0 0 0 0 0 0 0 0 0 0 0 0 0 0 0 0 0
3 3 3 2 1 1 1 1 1 0 0 0 0 0 0 0 0 0 0 0 0 0 0 0 0 0 0 0 0 0 0 0 0 0 0 0 0 0 0 0 0 0 0
3 2 1 1 0 0 0 0 0 0 0 0 0 0 0 0 0 0 0 0 0 0 0 0 0 0 0 0 0 0 0 0 0 0 0 0 0 0 0 0 0 0 0
2 1 0 0 0 0 0 0 0 0 0 0 0 0 0 0 0 0 0 0 0 0 0 0 0 0 0 0 0 0 0 0 0 0 0 0 0 0 0 0 0 0 0
1 0 0 0 0 0 0 0 0 0 0 0 0 0 0 0 0 0 0 0 0 0 0 0 0 0 0 0 0 0 0 0 0 0 0 0 0 0 0 0 0 0 0
0 0 0 0 0 0 0 0 0 0 0 0 0 0 0 0 0 0 0 0 0 0 0 0 0 0 0 0 0 0 0 0 0 0 0 0 0 0 0 0 0 0 0
0 0 0 0 0 0 0 0 0 0 0 0 0 0 0 0 0 0 0 0 0 0 0 0 0 0 0 0 0 0 0 0 0 0 0 0 0 0 0 0 0 0 0
0 0 0 0 0 0 0 0 0 0 0 0 0 0 0 0 0 0 0 0 0 0 0 0 0 0 0 0 0 0 0 0 0 0 0 0 0 0 0 0 0 0 0
0 0 0 0 0 0 0 0 0 0 0 0 0 0 0 0 0 0 0 0 0 0 0 0 0 0 0 0 0 0 0 0 0 0 0 0 0 0 0 0 0 0 0
0 0 0 0 0 0 0 0 0 0 0 0 0 0 0 0 0 0 0 0 0 0 0 0 0 0 0 0 0 0 0 0 0 0 0 0 0 0 0 0 0 0 0
0 0 0 0 0 0 0 0 0 0 0 0 0 0 0 0 0 0 0 0 0 0 0 0 0 0 0 0 0 0 0 0 0 0 0 0 0 0 0 0 0 0 0
0 0 0 0 0 0 0 0 0 0 0 0 0 0 0 0 0 0 0 0 0 0 0 0 0 0 0 0 0 0 0 0 0 0 0 0 0 0 0 0 0 0 0
0 0 0 0 0 0 0 0 0 0 0 0 0 0 0 0 0 0 0 0 0 0 0 0 0 0 0 0 0 0 0 0 0 0 0 0 0 0 0 0 0 0 0
0 0 0 0 0 0 0 0 0 0 0 0 0 0 0 0 0 0 0 0 0 0 0 0 0 0 0 0 0 0 0 0 0 0 0 0 0 0 0 0 0 0 0
0 0 0 0 0 0 0 0 0 0 0 0 0 0 0 0 0 0 0 0 0 0 0 0 0 0 0 0 0 0 0 0 0 0 0 0 0 0 0 0 0 0 0
0 0 0 0 0 0 0 0 0 0 0 0 0 0 0 0 0 0 0 0 0 0 0 0 0 0 0 0 0 0 0 0 0 0 0 0 0 0 0 0 0 0 0
0 0 0 0 0 0 0 0 0 0 0 0 0 0 0 0 0 0 0 0 0 0 0 0 0 0 0 0 0 0 0 0 0 0 0 0 0 0 0 0 0 0 0
Wind_Speed
5 5 4 4 4 3 3 3 3 3 3 3 3 3 3 3 4 4 4 12 13 13 14 15 15 15 14 14 13 12 12 11 11 10 9 9 8 8 8 8 7 7 7
5 5 4 4 4 4 4 3 3 2 2 1 1 1 1 2 2 3 3 6 11 12 13 14 15 15 14 14 13 13 12 12 11 11 10 9 9 9 8 8 8 8 7
4 4 4 4 4 4 4 2 2 1 1 1 1 1 1 1 1 2 2 2 4 9 11 11 11 12 12 13 13 12 12 11 11 10 10 9 8 8 8 7 7 7 7
4 4 4 3 3 3 2 2 1 2 1 1 0 0 1 2 2 1 1 1 1 2 5 8 8 9 10 11 11 11 11 10 10 9 9 8 7 7 7 7 7 7 7
4 3 2 2 3 2 2 2 2 1 1 1 0 1 1 1 1 2 2 1 1 1 1 2 4 5 7 8 8 9 9 9 9 8 8 7 6 6 5 5 5 6 6
3 3 3 2 3 3 2 2 2 1 1 0 1 2 2 1 1 1 2 2 1 1 1 1 1 2 4 5 6 6 6 7 7 7 6 5 5 4 4 3 4 5 6
4 4 3 3 3 3 3 2 2 2 1 1 2 1 2 2 2 2 2 2 2 2 2 2 1 1 1 2 3 4 5 4 4 3 3 3 3 2 1 0 2 3 5
6 5 5 4 4 4 4 3 2 1 1 1 1 1 0 2 2 3 3 3 3 3 3 3 3 3 2 1 3 6 6 6 6 4 4 4 4 4 3 3 5 6 7
8 7 6 5 5 4 3 3 2 2 1 2 2 2 2 1 0 2 4 4 4 3 3 3 3 4 3 3 3 5 7 6 5 6 6 5 5 4 5 6 7 8 9
9 9 8 7 6 5 5 5 5 3 2 1 2 2 2 1 1 1 2 3 4 5 4 4 4 4 4 3 5 7 8 7 6 5 5 6 6 6 7 8 10 11 12
10 10 8 8 8 7 8 8 7 7 5 4 3 2 3 4 3 1 1 2 3 3 4 4 3 3 4 3 3 5 7 7 6 5 5 5 7 8 9 10 11 12 13
8 10 9 9 9 8 8 8 9 10 8 8 7 6 5 3 3 3 2 1 2 2 3 3 3 3 2 2 2 4 4 3 2 3 5 7 9 10 11 12 13 13 14
7 8 8 8 8 8 8 8 10 10 9 9 8 6 6 5 3 2 3 2 2 2 3 3 3 3 2 2 2 2 1 2 4 6 8 10 11 12 12 13 14 14 15
8 8 9 9 9 9 9 8 8 8 8 8 9 7 6 5 5 4 2 2 2 3 3 3 2 3 2 1 2 3 3 6 8 10 10 12 13 13 14 15 15 15 15
9 10 9 9 9 9 9 8 8 7 7 7 7 7 6 5 5 4 4 3 2 1 2 2 2 2 2 2 3 2 3 8 10 11 11 12 13 14 15 16 16 16 16
9 9 9 9 8 8 8 8 7 7 7 6 5 7 6 4 4 4 4 4 3 2 0 2 2 3 3 3 4 3 5 10 11 12 13 12 13 14 14 15 15 16 16
9 8 8 8 8 7 7 6 6 6 7 6 5 6 5 5 4 4 4 4 3 2 1 3 2 3 3 4 5 4 4 5 6 12 13 12 11 12 13 13 14 15 15
8 7 7 8 8 7 6 6 6 6 5 5 5 5 5 4 5 4 4 4 3 2 1 2 3 3 4 5 5 5 5 5 5 10 12 11 11 11 12 12 12 12 12
7 7 7 7 7 7 6 6 5 5 5 4 4 4 3 4 4 3 3 3 2 2 1 1 3 3 3 3 4 5 5 4 6 7 9 9 10 11 12 11 11 11 11
7 6 6 6 6 6 6 6 5 5 5 4 4 3 2 2 1 2 2 2 2 3 2 2 3 3 3 4 3 3 5 4 5 6 6 7 9 11 11 11 11 10 9
6 5 5 5 5 5 5 5 5 5 5 5 5 4 3 3 2 2 2 2 2 2 2 3 3 3 4 3 3 3 4 5 5 3 3 5 5 4 6 8 10 9 9
5 5 5 5 5 4 7 8 5 4 4 4 4 4 3 4 5 7 8 8 5 3 3 2 3 4 5 4 3 3 3 3 5 3 2 5 3 4 4 4 7 8 8
4 4 4 4 3 4 7 9 9 4 4 3 3 3 3 2 4 4 7 9 8 9 6 4 4 5 5 5 3 4 4 3 4 4 2 4 3 4 4 4 7 8 8
3 2 2 2 2 3 6 8 9 5 4 4 3 2 2 3 3 4 5 6 6 6 7 4 5 7 7 7 5 4 4 4 5 4 2 3 3 4 4 4 6 8 9
2 2 2 2 2 2 5 7 7 4 4 5 5 4 3 3 6 6 5 6 7 7 7 8 9 9 11 11 7 2 2 2 3 4 1 1 3 3 3 3 4 8 9
2 2 2 1 2 1 3 6 6 3 4 4 5 5 6 6 8 8 4 4 6 7 8 10 10 10 8 7 6 3 3 2 2 3 3 1 2 3 4 4 3 4 5
Wind_Direction
189 186 191 190 197 198 198 210 222 229 229 244 245 229 210 195 195 196 201 197 197 202 203 200 196 194 194 193 191 188 187 185 183 181 180 179 176 175 173 170 168 166 166
185 180 184 186 198 199 201 202 202 203 211 218 203 181 161 153 181 196 193 197 200 205 208 205 201 200 199 198 195 194 193 191 189 187 185 184 181 180 180 178 176 175 173
179 172 173 182 193 185 183 177 181 154 147 120 86 94 92 85 123 166 175 180 194 206 208 204 200 199 201 201 199 198 195 192 188 186 187 186 182 180 179 179 177 176 176
169 161 159 168 168 153 152 142 135 115 105 93 90 79 84 78 80 111 124 149 195 213 214 204 196 194 198 201 200 199 195 192 188 185 183 181 181 180 181 185 185 185 186
159 143 136 132 126 119 114 122 100 116 119 107 107 65 70 79 93 106 111 127 167 159 165 197 193 188 194 196 196 197 191 185 180 176 175 175 175 178 183 190 193 200 205
122 122 114 108 105 98 86 85 99 84 103 131 78 63 46 55 81 98 119 115 106 128 141 137 151 190 199 205 197 192 185 178 174 173 174 177 177 179 191 205 222 235 238
87 93 94 79 73 80 83 89 108 89 58 81 89 46 22 31 54 60 68 81 74 68 72 86 97 102 118 176 178 172 162 149 145 138 142 147 132 114 112 323 293 294 284
66 74 77 78 73 79 68 56 72 105 64 53 124 122 354 2 27 36 38 52 52 49 55 67 72 76 72 67 103 127 118 116 111 106 89 75 64 41 4 318 297 291 292
65 68 70 75 72 74 71 53 49 85 105 40 52 125 155 216 326 33 33 36 34 40 36 46 62 66 76 72 75 88 95 90 89 79 70 54 35 13 352 342 329 318 305
59 59 60 62 64 65 62 52 49 52 80 66 38 42 72 93 132 89 36 28 32 36 29 41 54 61 67 71 78 87 89 85 81 69 50 29 7 348 336 328 317 311 305
58 59 58 61 59 60 59 57 56 56 57 60 51 37 43 39 37 84 69 16 19 22 26 30 44 53 62 68 73 88 86 76 63 42 16 351 335 326 320 315 310 307 304
62 60 63 63 62 61 62 63 63 63 64 66 62 55 55 52 36 52 67 37 12 1 22 32 38 45 52 54 70 96 89 66 20 333 318 315 315 315 312 309 306 304 302
69 59 64 66 65 63 64 67 68 65 62 64 64 61 57 52 38 54 69 43 25 358 15 25 23 28 44 41 30 28 352 298 286 283 288 295 299 298 298 297 298 298 298
80 72 70 69 68 67 67 65 66 64 63 63 62 60 58 47 41 43 57 68 45 11 19 10 357 11 6 354 304 297 288 280 277 276 278 282 287 288 288 286 285 285 286
86 77 72 70 65 63 62 63 64 60 61 59 58 59 57 45 43 41 45 61 96 58 350 337 341 339 328 297 281 278 275 281 289 292 291 287 285 284 282 281 280 280 280
79 79 75 71 66 62 62 65 63 58 60 54 58 59 53 44 40 35 40 41 55 105 0 310 308 300 312 322 309 290 277 293 295 296 294 291 287 285 284 283 282 281 280
77 74 74 73 67 61 56 61 61 61 61 53 51 57 52 48 43 32 35 39 38 62 51 303 294 307 319 318 315 302 290 285 289 293 292 291 292 291 289 287 285 283 282
78 76 73 70 65 58 51 54 58 56 59 55 47 49 41 45 39 31 35 33 27 38 54 320 309 315 309 305 304 305 308 310 298 296 296 298 300 300 298 292 288 285 283
78 74 72 68 61 54 49 45 50 48 46 43 40 43 38 46 33 23 31 24 2 5 18 322 299 297 296 310 323 317 317 310 311 309 306 311 314 313 310 303 298 293 289
81 80 76 71 64 54 46 37 40 39 31 23 20 24 26 35 37 12 6 350 340 342 336 328 307 305 299 303 321 315 320 320 314 311 313 313 312 314 313 309 305 300 295
89 90 82 70 62 56 43 41 32 33 24 12 7 6 4 29 41 7 347 323 325 320 318 316 306 306 303 314 313 296 304 308 304 292 314 308 308 307 309 309 309 302 302
80 82 80 76 62 50 38 38 39 31 18 13 2 354 354 27 17 6 354 342 331 300 289 279 280 288 285 282 278 283 297 325 312 299 320 299 302 300 296 291 297 304 306
85 91 93 87 69 33 31 27 29 37 19 3 351 349 352 6 4 347 339 340 334 322 299 248 257 269 271 272 278 289 285 271 262 272 307 289 302 300 296 305 319 321 319
107 119 116 110 84 28 27 25 27 32 21 5 354 344 328 316 324 336 330 329 319 309 298 282 251 263 265 265 246 246 264 282 276 270 222 271 299 301 308 319 323 332 331
113 137 142 136 109 9 17 26 34 20 13 359 350 346 325 302 305 326 330 325 322 316 310 310 299 290 286 284 271 239 276 299 309 303 292 263 293 310 312 310 320 339 338
135 137 132 143 133 42 1 19 31 25 8 349 338 333 324 311 309 316 306 305 312 308 320 326 327 328 322 318 312 218 217 229 276 294 289 309 302 336 325 305 310 325 335